Location: Santa Cristina
(46.5667°N, 11.7167°E)
Time: 06:43:10
(UTC+00:00)

SL-16 R/B - Pass Details

Date: 21 April 2021
Orbit: 985 x 1007 km, 99.5° (Epoch: 15 May)

Event Time Altitude Azimuth Distance (km) Brightness Sun altitude
Exits shadow 01:19:17 56° 226° (SW) 1,187 2.5 -25.0°
Maximum altitude 01:20:05 60° 258° (WSW) 1,141 2.6 -24.9°
Drops below altitude 10° 01:26:18 10° 338° (NNW) 2,793 5.3 -24.3°
Sets 01:28:50 0° 342° (NNW) 3,748 6.0 -24.0°
